Theta_e
335 341 349 349 346 345 346 346 347 348 349 347 345 343 342 341 343 345 345 344 345 343 344 345 346 346 346 345 345 345 346 346 346 346 346 346 346 345 344 345 344 342 345
338 342 347 349 346 344 344 345 345 348 348 347 345 343 341 341 342 341 342 343 344 341 340 341 342 343 343 342 342 342 343 343 343 344 344 344 344 344 343 345 344 343 345
338 341 347 348 347 343 342 344 345 347 347 346 345 343 341 340 341 341 340 342 344 339 339 338 339 339 340 340 340 340 339 339 340 340 342 341 340 343 343 344 344 342 341
340 343 345 344 346 343 343 343 344 345 346 346 345 343 341 339 340 340 338 341 341 338 338 337 337 337 337 338 338 338 337 336 338 339 338 338 338 342 343 342 340 339 339
341 343 346 344 347 344 343 342 343 345 346 344 345 344 342 340 338 339 338 339 341 337 337 337 336 335 335 335 336 336 335 334 335 336 337 337 338 339 341 339 338 338 338
340 343 344 346 347 345 344 342 342 343 344 343 344 344 342 339 337 338 338 337 339 337 337 335 335 335 335 335 335 335 334 334 335 335 335 337 336 338 338 337 336 335 336
339 344 346 345 345 345 344 343 343 342 344 343 344 345 342 340 337 337 336 335 338 338 337 335 335 335 335 336 336 336 335 336 336 336 335 334 335 336 335 334 334 334 334
339 345 344 339 341 343 343 343 343 343 343 343 343 345 342 340 337 336 336 335 337 339 337 335 335 335 335 336 335 334 332 333 333 334 333 333 335 333 333 333 333 332 332
340 344 345 345 342 336 339 340 341 342 342 342 343 344 341 340 338 336 337 335 335 335 336 335 335 334 335 334 333 331 329 330 333 332 331 330 333 332 331 331 331 330 329
340 342 345 344 342 343 342 333 335 337 338 339 340 337 334 334 334 333 331 335 334 336 334 334 334 333 333 332 330 328 328 329 331 331 331 330 331 330 331 330 329 328 327
337 340 342 342 343 343 343 335 332 332 333 333 334 329 331 339 336 332 329 332 334 335 333 333 332 330 328 327 326 325 328 331 330 330 328 329 330 330 329 327 327 326 325
334 337 338 339 341 342 341 340 339 337 337 337 340 340 340 338 336 331 326 328 331 331 333 330 327 323 325 329 329 326 331 330 329 329 327 329 328 328 327 326 325 325 324
335 335 336 337 339 339 339 341 340 337 337 337 337 339 338 336 333 332 331 330 331 326 330 328 324 325 324 325 327 329 329 329 328 328 326 328 328 327 325 324 323 323 322
335 336 337 338 337 339 340 340 340 338 336 335 335 337 336 334 333 332 330 329 329 329 328 326 325 324 324 324 325 326 327 327 328 327 325 324 327 325 324 322 321 321 320
335 336 335 336 335 337 338 338 338 337 336 335 334 335 334 332 331 331 329 328 327 327 326 324 324 323 323 323 324 325 325 326 327 327 327 319 324 324 324 323 320 320 319
335 335 336 335 336 336 337 337 337 336 336 335 333 333 333 332 331 329 328 327 326 324 323 322 322 322 323 323 322 323 325 326 326 326 326 324 322 325 323 322 321 320 319
336 336 335 335 336 335 335 336 337 337 335 333 333 333 332 331 330 328 327 326 325 324 321 321 320 321 320 321 321 322 323 325 324 324 325 325 323 320 323 322 321 320 319
335 336 336 335 335 336 336 337 337 337 336 333 330 331 331 330 330 328 326 325 325 323 320 319 318 318 319 319 319 319 320 321 321 321 322 324 323 322 320 323 321 320 320
332 334 336 337 335 335 336 336 336 336 336 335 332 328 328 329 329 328 326 326 323 320 318 317 317 317 315 314 311 314 316 317 318 317 316 318 322 321 321 320 320 319 320
326 331 333 337 335 335 335 335 335 334 334 335 333 329 327 326 327 327 327 326 323 320 316 313 312 310 311 312 308 308 314 313 316 314 316 315 317 318 319 319 320 317 317
311 321 327 331 335 333 332 331 331 330 331 332 333 331 328 325 324 324 326 324 320 318 316 313 310 307 309 310 306 308 310 309 312 314 315 315 313 311 315 315 316 317 317
305 307 314 322 329 334 333 332 333 332 332 333 333 332 329 326 323 322 322 322 321 315 313 310 307 308 306 305 308 310 308 309 310 310 312 312 309 311 309 309 311 313 315
304 305 306 313 321 329 334 333 331 331 331 330 330 330 330 327 324 321 321 321 318 315 313 314 311 307 308 302 307 305 304 305 306 299 307 306 304 311 306 308 307 308 310
306 306 303 310 317 323 330 331 328 327 326 329 330 332 330 330 327 323 322 322 324 319 315 313 312 312 310 305 302 303 303 300 298 298 302 300 302 304 303 307 304 304 305
307 310 312 304 309 319 325 329 329 327 328 330 329 330 330 328 328 326 328 326 320 319 318 315 314 310 310 308 303 301 301 297 295 294 299 302 291 296 300 300 301 301 302
307 309 315 312 307 311 319 325 327 326 325 327 330 330 330 328 327 327 324 323 321 318 317 315 313 310 309 307 307 303 300 298 297 296 295 299 301 300 292 295 297 300 298
Wind_Speed
10 13 8 10 10 9 9 9 9 9 12 15 15 15 14 14 14 14 15 16 15 18 17 17 17 17 19 18 18 19 20 20 19 20 20 19 21 21 20 16 17 18 18
15 14 9 11 11 10 9 9 8 9 12 15 15 15 14 14 14 16 14 14 14 18 16 16 16 16 15 16 17 17 18 18 14 12 16 18 17 20 19 16 17 18 21
16 13 12 11 10 11 9 9 8 9 12 14 15 15 15 14 14 16 15 12 14 16 16 16 16 15 15 14 15 16 16 14 11 10 8 13 15 17 18 17 17 18 18
15 13 13 12 11 11 10 9 7 8 10 12 14 14 14 14 14 15 14 13 15 17 16 16 16 16 15 15 15 15 15 14 10 5 9 12 15 20 20 19 18 17 17
15 13 12 13 12 11 11 9 8 8 10 10 13 14 13 14 13 14 14 12 13 15 15 15 15 15 15 14 14 14 14 12 7 11 12 13 12 17 19 19 18 19 17
14 13 13 13 13 12 11 10 9 8 9 10 9 14 14 13 13 12 13 12 11 14 15 14 14 14 13 13 12 12 12 7 5 12 12 13 14 18 18 16 17 17 15
15 13 15 12 12 12 11 10 9 8 9 9 8 13 14 13 12 11 12 11 11 13 15 13 13 13 12 12 12 12 10 4 11 11 11 12 13 16 16 17 16 14 16
15 13 13 11 10 11 11 9 9 8 8 9 8 12 14 13 12 11 11 10 10 14 14 12 12 12 11 12 12 13 8 5 9 11 11 11 13 14 14 14 13 15 15
14 13 13 13 11 9 9 9 8 8 8 8 6 12 13 11 11 10 8 10 9 11 13 12 11 11 12 12 11 12 8 7 9 7 8 8 12 13 12 12 12 14 14
12 12 12 12 11 11 10 8 8 8 8 8 6 10 10 10 10 9 7 9 9 12 12 11 11 11 12 12 11 9 7 5 8 6 8 7 11 11 13 13 13 14 13
11 12 11 11 11 11 10 9 8 7 7 8 8 9 10 7 8 9 8 9 8 9 11 11 11 11 12 11 9 6 0 4 5 5 5 8 12 12 12 12 12 11 12
14 13 12 11 10 10 8 10 9 9 8 7 8 9 5 6 5 5 7 8 7 8 10 10 8 7 3 4 5 3 3 4 4 4 6 7 10 11 10 9 11 11 11
15 12 13 12 11 11 9 7 5 5 5 5 8 7 6 5 5 5 5 5 6 6 6 6 5 3 4 3 3 3 4 3 3 3 7 8 10 10 10 9 10 10 10
16 16 14 14 11 11 7 7 7 6 6 6 7 8 6 5 6 5 4 5 5 4 5 4 3 3 3 3 3 4 4 3 3 3 6 6 9 10 11 8 8 8 8
15 15 15 14 13 11 11 7 7 8 7 7 7 9 7 6 6 5 5 5 5 4 4 4 3 3 3 4 4 4 5 5 5 3 4 7 8 8 10 11 8 8 8
14 15 15 15 14 12 11 11 8 7 8 7 7 8 9 7 6 6 6 5 5 5 4 4 4 4 4 4 4 5 5 6 6 6 5 7 8 10 10 12 11 10 9
14 13 15 15 13 13 14 12 9 9 7 7 8 9 10 9 8 8 6 6 6 5 6 5 5 4 4 4 5 4 5 6 7 7 6 6 8 8 10 13 13 12 11
14 16 15 13 15 14 12 10 8 9 9 8 7 7 11 10 10 9 7 7 6 6 6 6 6 5 5 5 4 4 5 6 7 8 8 7 8 7 9 12 14 15 15
15 16 17 16 18 16 13 9 10 11 8 8 8 8 10 12 11 9 8 7 8 6 7 6 7 7 6 6 4 4 5 6 8 7 10 10 10 8 8 12 12 13 16
15 16 17 15 17 16 10 9 7 7 8 7 7 7 11 8 11 11 8 9 9 8 7 5 8 6 4 6 5 5 7 7 8 9 10 9 10 12 11 11 11 12 14
13 16 18 17 18 12 9 9 7 9 8 7 8 11 11 10 11 10 9 8 7 7 8 8 7 7 7 5 2 6 8 9 11 10 10 10 12 11 12 11 8 7 10
11 12 14 17 17 15 10 9 8 8 7 8 9 9 11 11 11 10 9 9 11 6 7 9 8 5 4 6 4 3 5 5 11 11 10 10 10 9 10 12 11 12 9
5 7 10 14 16 16 16 10 6 2 3 6 8 8 10 11 11 12 12 10 11 9 9 12 11 12 8 5 9 3 3 7 2 2 12 9 7 10 8 10 11 13 12
4 3 6 10 13 13 15 12 15 12 11 10 8 7 7 11 13 11 12 12 13 9 10 9 9 11 9 8 5 8 5 2 3 3 3 6 7 11 8 8 8 9 10
5 4 1 5 9 11 13 14 11 14 10 9 7 9 9 9 11 11 13 13 10 9 12 11 10 11 10 9 6 3 7 3 3 5 10 6 3 9 8 8 8 8 11
6 6 5 4 4 8 11 14 14 13 11 9 10 8 7 5 7 9 9 10 10 10 11 10 10 10 10 9 8 8 7 5 5 8 10 12 12 6 6 8 10 11 10
Wind_Direction
163 147 155 142 127 121 116 109 114 111 123 108 96 88 85 83 80 76 72 72 86 79 71 67 70 72 72 70 70 75 74 72 70 73 75 75 78 75 68 58 70 72 70
151 152 155 135 134 128 125 119 106 94 106 105 103 97 89 88 85 82 82 80 82 85 80 79 75 74 80 73 71 74 74 74 70 79 96 87 75 76 75 70 68 71 68
150 149 158 139 134 127 125 120 108 101 100 111 107 101 99 97 94 92 84 86 93 87 83 80 79 82 77 74 73 74 76 78 71 62 65 77 78 76 74 75 77 75 74
150 153 153 139 135 135 132 129 128 123 116 117 117 108 102 100 101 93 89 79 93 90 84 82 81 80 80 78 76 74 70 59 45 80 80 77 73 72 73 72 73 76 79
151 154 141 137 139 142 141 138 128 123 120 119 128 119 107 103 101 102 96 87 90 91 87 84 84 83 82 79 76 72 67 58 45 90 79 82 81 75 70 70 72 65 66
154 155 136 138 142 146 142 141 136 135 130 127 132 124 112 108 108 105 95 88 102 92 89 86 86 85 83 84 81 79 72 51 113 87 93 85 80 76 72 69 68 69 70
157 156 155 141 144 147 146 146 141 141 134 126 119 129 119 113 108 108 102 97 90 100 96 94 91 92 86 85 80 78 75 24 97 89 87 83 79 76 71 67 62 72 76
157 158 153 145 145 149 149 148 143 139 132 130 129 133 126 120 114 114 112 104 99 101 97 96 93 93 91 88 85 85 65 95 94 88 82 82 85 82 80 77 75 71 76
158 162 163 164 156 149 150 147 144 138 132 131 133 140 128 125 118 115 109 111 109 113 100 99 98 99 92 86 82 81 57 21 88 83 87 85 80 79 81 86 87 79 76
168 170 171 171 171 166 161 151 147 144 138 131 117 116 116 113 115 118 121 113 113 110 112 109 103 103 94 89 89 80 82 79 90 90 80 86 78 85 94 87 83 83 83
178 181 176 181 179 176 168 157 149 142 132 122 123 119 149 143 141 154 86 119 116 118 123 115 107 102 99 84 80 71 301 90 91 81 86 82 90 91 92 92 91 90 86
184 189 187 188 184 182 175 166 172 161 169 166 163 166 156 153 144 129 121 115 112 115 113 114 110 115 177 132 121 166 103 113 104 93 97 107 100 103 98 99 101 103 95
183 188 194 192 190 192 184 181 178 176 172 171 171 169 165 158 157 162 143 153 150 170 148 151 156 141 123 140 142 142 134 157 135 116 116 121 117 117 111 119 118 112 113
191 191 197 195 196 192 190 189 191 184 182 181 180 178 175 175 174 171 172 165 168 182 161 169 154 130 125 115 139 153 176 182 172 154 137 146 142 137 130 135 136 134 134
197 196 200 202 202 196 194 191 199 200 193 190 183 186 190 186 183 178 173 177 179 174 177 173 163 163 153 156 166 178 183 194 185 182 169 168 164 156 150 151 163 157 159
205 203 203 205 207 203 200 197 193 196 203 195 196 192 198 195 189 187 181 184 182 185 176 182 181 180 179 184 184 199 200 199 201 204 200 182 192 171 174 173 169 181 179
210 208 209 207 202 206 207 204 200 197 189 196 202 200 197 199 196 194 190 193 191 184 181 182 183 194 202 206 213 209 214 209 216 224 221 215 193 210 193 193 185 186 193
216 213 210 208 208 205 205 204 198 200 199 196 193 199 202 205 203 200 200 202 191 189 189 194 195 202 218 220 217 217 221 220 225 223 234 228 219 215 204 212 201 195 198
220 216 216 211 213 209 208 204 206 204 205 200 194 195 196 203 205 209 211 204 192 195 202 203 202 214 206 208 215 223 232 237 231 234 225 231 232 233 226 200 213 207 207
225 223 222 215 217 211 203 205 202 199 201 200 196 195 191 195 202 210 216 213 198 196 200 195 202 204 215 216 207 229 228 233 235 238 233 231 233 230 231 232 214 215 221
226 226 222 219 215 209 200 195 194 200 197 200 199 198 190 192 194 203 215 214 201 208 208 198 193 204 214 196 191 238 248 248 242 237 233 233 226 227 231 230 228 229 213
237 230 231 226 219 208 206 205 207 202 208 207 204 197 195 190 190 196 202 213 212 202 198 193 188 205 219 178 235 254 271 242 231 235 237 233 238 237 233 233 231 230 233
239 247 235 226 222 216 214 204 202 201 185 200 206 199 200 195 189 193 202 208 206 201 207 212 208 205 218 202 217 207 211 238 355 353 236 236 232 237 230 235 233 232 228
360 287 236 222 217 217 212 209 210 214 217 218 210 203 196 200 206 199 208 213 217 214 218 210 211 222 222 218 212 235 235 46 224 297 208 254 250 239 236 249 247 250 237
18 15 19 201 213 210 210 213 210 218 224 228 210 191 192 196 204 206 216 219 213 210 220 216 213 214 221 230 217 145 224 201 203 215 273 240 228 240 237 232 233 236 234
35 42 51 98 172 204 212 212 215 221 225 223 224 205 196 189 201 210 209 211 214 212 214 214 214 213 216 218 220 215 197 196 203 220 241 258 263 247 219 225 231 234 232